EW5961 Weather Reports


time (UTC)temp
C
wind
direction
speed
KPH
gust
KPH
rain 1hr
cm
rain 24hr
cm
rain mn
cm
humidity
%
barometer
mb
20200229093014 16 154 0.0 0.0 0.00 0.00 0.00 75 1025.3
20200229091539 16 154 0.0 0.0 0.00 0.00 0.00 74 1025.3
20200229090029 16 267 0.0 0.0 0.00 0.00 0.00 74 1025.4
20200229084517 16 315 0.0 0.0 0.00 0.00 0.00 73 1025.4
20200229083013 16 315 0.0 0.0 0.00 0.00 0.00 72 1025.5
20200229081538 17 315 0.0 0.0 0.00 0.00 0.00 72 1025.6
20200229080041 17 315 0.0 0.0 0.00 0.00 0.00 72 1025.6
20200229074500 17 315 0.0 0.0 0.00 0.00 0.00 71 1025.8
20200229073310 17 29 0.0 0.0 0.00 0.00 0.00 70 1026.1
20200229071707 17 20 0.0 0.0 0.00 0.00 0.00 70 1026.3
20200229064709 17 360 0.0 0.0 0.00 0.00 0.00 69 1026.6
20200229063204 17 5 0.0 0.0 0.00 0.00 0.00 68 1026.8
20200229061617 17 5 0.0 0.0 0.00 0.00 0.00 68 1026.9
20200229060117 18 13 0.0 0.0 0.00 0.00 0.00 67 1027.0
20200229054716 17 5 0.0 0.0 0.00 0.00 0.00 67 1027.1
20200229053140 17 29 0.0 0.0 0.00 0.00 0.00 67 1027.1
20200229051632 17 29 0.0 0.0 0.00 0.00 0.00 67 1027.1
20200229050131 18 30 0.0 0.0 0.00 0.00 0.00 67 1027.1
20200229044633 18 36 0.0 0.0 0.00 0.00 0.00 66 1027.2
20200229043134 18 31 0.0 0.0 0.00 0.00 0.00 65 1027.2
20200229041557 18 21 0.0 0.0 0.00 0.00 0.00 65 1027.2
20200229040123 18 5 0.0 0.0 0.00 0.00 0.00 65 1027.2
20200229034557 18 40 0.0 0.0 0.00 0.00 0.00 64 1027.3
20200229033112 18 36 0.0 0.0 0.00 0.00 0.00 64 1027.2
20200229031644 18 11 0.0 0.0 0.00 0.00 0.00 63 1027.3
20200229030139 18 341 0.0 0.0 0.00 0.00 0.00 63 1027.2
20200229024606 19 25 0.0 0.0 0.00 0.00 0.00 62 1027.0
20200229023245 19 46 0.0 0.0 0.00 0.00 0.00 62 1026.9
20200229021617 19 22 0.0 0.0 0.00 0.00 0.00 62 1026.7
20200229014543 20 5 0.0 0.0 0.00 0.00 0.00 62 1026.2
20200229013045 20 33 0.0 0.0 0.00 0.00 0.00 62 1026.0
20200229011553 20 27 0.0 0.0 0.00 0.00 0.00 62 1025.7
20200229011505 20 17 0.0 0.0 0.00 0.00 0.00 62 1025.7
20200229010037 20 9 0.0 0.0 0.00 0.00 0.00 62 1025.5
20200229004618 20 355 0.0 0.0 0.00 0.00 0.00 62 1025.4
20200229003058 20 30 0.0 0.0 0.00 0.00 0.00 62 1025.1
20200229001604 20 23 0.0 0.0 0.00 0.00 0.00 60 1025.0
20200229000101 21 5 0.0 0.0 0.00 0.00 0.00 58 1025.0
20200228233129 21 350 0.0 0.0 0.00 0.00 0.00 55 1024.8
20200228231547 22 360 0.0 0.0 0.00 0.00 0.00 55 1024.8
20200228230109 21 334 0.0 0.0 0.00 0.00 0.00 55 1024.7
20200228224655 22 10 0.0 0.0 0.00 0.00 0.00 52 1024.5
20200228223101 22 355 0.0 0.0 0.00 0.00 0.00 54 1024.4
20200228221619 22 9 0.0 0.0 0.00 0.00 0.00 52 1024.4
20200228220031 23 28 0.0 0.0 0.00 0.00 0.00 50 1024.3
20200228214555 22 5 0.0 0.0 0.00 0.00 0.00 52 1024.3
20200228213059 22 34 0.0 0.0 0.00 0.00 0.00 52 1024.4
20200228211552 22 16 0.0 0.0 0.00 0.00 0.00 53 1024.4
20200228210036 23 38 0.0 0.0 0.00 0.00 0.00 53 1024.4
20200228204647 23 346 0.0 0.0 0.00 0.00 0.00 52 1024.4
20200228203107 23 18 0.0 0.0 0.00 0.00 0.00 52 1024.4
20200228201548 23 351 0.0 0.0 0.00 0.00 0.00 50 1024.4
20200228200107 23 350 0.0 0.0 0.00 0.00 0.00 50 1024.5
20200228194552 23 13 0.0 0.0 0.00 0.00 0.00 50 1024.7
20200228193051 23 9 0.0 0.0 0.00 0.00 0.00 49 1024.8
20200228191606 23 5 0.0 0.0 0.00 0.00 0.00 50 1024.7
20200228190043 23 355 0.0 0.0 0.00 0.00 0.00 51 1024.9
20200228184602 23 13 0.0 0.0 0.00 0.00 0.00 52 1025.1
20200228183104 23 350 0.0 0.0 0.00 0.00 0.00 51 1025.1
20200228181615 23 21 0.0 0.0 0.00 0.00 0.00 54 1025.3
20200228180131 23 14 0.0 0.0 0.00 0.00 0.00 53 1025.4
20200228174558 23 337 0.0 0.0 0.00 0.00 0.00 54 1025.6
20200228173045 23 360 0.0 0.0 0.00 0.00 0.00 53 1025.7
20200228171538 23 19 0.0 0.0 0.00 0.00 0.00 53 1025.9
20200228170058 23 29 0.0 0.0 0.00 0.00 0.00 54 1026.0
20200228164537 23 5 0.0 0.0 0.00 0.00 0.00 54 1026.2
20200228161637 23 20 0.0 0.0 0.00 0.00 0.00 56 1026.3
20200228160106 22 26 0.0 0.0 0.00 0.00 0.00 57 1026.3
20200228154525 22 9 0.0 0.0 0.00 0.00 0.00 58 1026.2
20200228153041 22 9 0.0 0.0 0.00 0.00 0.00 61 1026.2
20200228151514 21 355 0.0 0.0 0.00 0.00 0.00 63 1026.1
20200228150018 21 9 0.0 0.0 0.00 0.00 0.00 65 1026.0
20200228144506 21 360 0.0 0.0 0.00 0.00 0.00 66 1025.8
20200228143003 21 13 0.0 0.0 0.00 0.00 0.00 68 1025.6
20200228141504 20 14 0.0 0.0 0.00 0.00 0.00 69 1025.4
20200228134654 20 349 0.0 0.0 0.00 0.00 0.00 69 1025.1
20200228133240 20 5 0.0 0.0 0.00 0.00 0.00 70 1024.9
20200228131716 19 17 0.0 0.0 0.00 0.00 0.00 70 1024.7
20200228130110 19 17 0.0 0.0 0.00 0.00 0.00 71 1024.6
20200228124613 19 355 0.0 0.0 0.00 0.00 0.00 72 1024.5
20200228123212 18 27 0.0 0.0 0.00 0.00 0.00 73 1024.4
20200228121758 18 355 0.0 0.0 0.00 0.00 0.00 75 1024.3
20200228120059 18 338 0.0 0.0 0.00 0.00 0.00 76 1024.2
20200228114804 18 315 0.0 0.0 0.00 0.00 0.00 75 1024.1
20200228113116 18 317 0.0 0.0 0.00 0.00 0.00 75 1024.1
20200228111635 18 298 0.0 0.0 0.00 0.00 0.00 74 1024.0
20200228110049 19 5 0.0 0.0 0.00 0.00 0.00 74 1023.9
20200228104641 19 331 0.0 0.0 0.00 0.00 0.00 73 1023.7
20200228103056 19 18 0.0 0.0 0.00 0.00 0.00 73 1023.6
20200228100106 20 355 0.0 0.0 0.00 0.00 0.00 73 1023.6
20200228094640 20 11 0.0 0.0 0.00 0.00 0.00 73 1023.5